Regional Weather Roundup
Issued by NWS

Home | Current Version | Previous Version | Text Only | Print | Product List | Glossary On
Versions: 1 2 3 4 5 6 7 8 9 10 11 12 13 14 15 16 17 18 19 20 21 22 23 24 25 26 27 28 29 30 31 32 33 34 35 36 37 38 39 40 41 42 43 44 45 46 47 48 49 50
000
ASUS45 KBOU 300707
RWRCO

WEATHER ROUNDUP FOR COLORADO
NATIONAL WEATHER SERVICE DENVER/BOULDER CO
100 AM MDT SAT MAY 30 2015

NOTE: "FAIR" INDICATES FEW OR NO CLOUDS BELOW 12000 FEET WITH NO
SIGNIFICANT WEATHER AND/OR OBSTRUCTIONS TO VISIBILITY.

COZ001>005-013-030-031-300800-
...NORTHWEST COLORADO...

CITY           SKY/WX    TMP DP  RH WIND       PRES   REMARKS
CRAIG          CLEAR     42  39  89 CALM      30.30S
HAYDEN         CLEAR     45  36  70 E8        30.31S
MEEKER         CLEAR     46  39  76 VRB6      30.30S
MOUNT WERNER   NOT AVBL
STEAMBOAT SPGS CLEAR     40  37  87 CALM      30.33F
WALDEN         CLEAR     34  32  93 CALM      30.38F
$$

COZ006>008-011-300800-
...WEST CENTRAL VALLEYS...

CITY           SKY/WX    TMP DP  RH WIND       PRES   REMARKS
GRAND JUNCTION CLEAR     57  41  55 CALM      30.19R
MONTROSE       CLEAR     50  39  66 SE8       30.26S
EAGLE          CLEAR     54  48  82 CALM      30.37S
RIFLE          CLEAR     49  41  74 CALM      30.26S
DELTA          CLEAR     55  40  58 NE8       30.22S
NUCLA          CLEAR     52  36  54 E12       30.28S
$$

COZ017>023-064>068-300800-
...SOUTHWEST COLORADO...

CITY           SKY/WX    TMP DP  RH WIND       PRES   REMARKS
DURANGO        CLEAR     46  33  60 N3        30.25S
CORTEZ         CLEAR     43  31  62 NE8       30.23S
PAGOSA SPRINGS CLEAR     47  31  51 CALM      30.32R
TELLURIDE      CLEAR     43  32  66 SE7       30.42S
WOLF CREEK PAS NOT AVBL
$$

COZ009-010-012-014-032>034-037-058>063-300800-
...CENTRAL COLORADO...

CITY           SKY/WX    TMP DP  RH WIND       PRES   REMARKS
ASPEN          CLEAR     41  35  79 S8        30.36S
BUENA VISTA    MOCLDY    43  35  72 W9        30.39S
COPPER MTN     CLEAR     34  25  69 W10G16    30.52F WCI  26
BERTHOUD PASS  HAZE      27  19  74 NW17      30.53F VSB 1/2 WCI  14
COTTONWOOD PAS MOCLDY    43  32  65 CALM      30.46S
GUNNISON       CLEAR     43  30  61 CALM      30.38R
KREMMLING      CLEAR     37  34  87 CALM      30.39S
LEADVILLE      CLEAR     29  27  92 CALM      30.43F
MONARCH PASS   FOG       32  32 100 NE17      30.62S VSB<1/4 WCI  21
SALIDA         MOCLDY    49  40  70 E8G16     30.45S
SUNLIGHT       CLEAR     36  32  87 CALM      30.51F
WILKERSON PASS PTCLDY    32  30  93 S5        30.53S WCI  27
$$

COZ069>075-300800-
...SAN LUIS VALLEY/SANGRE DE CRISTO MOUNTAINS...

CITY           SKY/WX    TMP DP  RH WIND       PRES   REMARKS
ALAMOSA        CLEAR     47  38  71 E17       30.33R
LA VETA PASS   LGT RAIN N/A N/A N/A MISG      30.48S VSB 1/2
SAGUACHE       CLEAR     46  32  57 NW9       30.35R
$$

COZ035-036-038>040-300800-
...NORTHERN COLORADO FRONT RANGE...

CITY           SKY/WX    TMP DP  RH WIND       PRES   REMARKS
DENVER INTL AP MOCLDY    48  44  86 SE9       30.34S
DMNS CITY PARK   N/A     50  43  79 E10G17    30.35R
AURORA         CLOUDY    47  44  87 SE8       30.36S
FRONT RANGE AP CLOUDY    48  45  87 MISG      30.36S
ERIE MUNI ARPT CLOUDY    50  47  89 SE6       30.34S
BOULDER MUN AP CLOUDY    50  46  87 S3        30.34S
CENTENNIAL     CLOUDY    48  43  82 E7        30.36R
BROOMFIELD     CLOUDY    50  46  87 SE6       30.36R
FORT COLLINS   MOCLDY    48  45  87 S8        30.34S
LONGMONT       CLOUDY    53  49  86 CALM      30.35S
$$

COZ041-046-047-076>085-087-088-300800-
...PIKES PEAK/PALMER DIVIDE AND SOUTHERN FOOTHILLS...

CITY           SKY/WX    TMP DP  RH WIND       PRES   REMARKS
COLO. SPRINGS  CLOUDY    49  46  90 SE6       30.37S
A. F. ACADEMY  MOCLDY    46  46 100 N5        30.37S
ELLICOTT       CLOUDY   N/A N/A N/A NE12      30.36F
FALCON         CLOUDY    44  43  97 NE8       30.39F
FORT CARSON    CLOUDY    49  47  95 E7        30.36R
LIMON          CLOUDY    46  42  86 N10       30.35S
MONUMENT HILL  CLOUDY    41  41 100 NW6       30.39S
TRINIDAD       LGT RAIN  50  46  86 CALM      30.37R
$$

COZ042>045-048>051-090-091-300800-
...NORTHEAST COLORADO...

CITY           SKY/WX    TMP DP  RH WIND       PRES   REMARKS
GREELEY ARPT   MOCLDY    48  45  87 S5        30.33S
AKRON          CLOUDY    47  45  93 CALM      30.33R
BURLINGTON     CLOUDY    49  45  86 N12       30.31S
WRAY           CLOUDY    50  46  88 N7        30.32S
STERLING       CLOUDY    48  45  87 NE3       30.31S
HOLYOKE        CLOUDY    48  43  81 N6        30.32S
FORT MORGAN    CLOUDY    48  44  84 SE3       30.33F
$$

COZ086-089-092>099-300800-
...SOUTHEAST COLORADO...

CITY           SKY/WX    TMP DP  RH WIND       PRES   REMARKS
PUEBLO         LGT RAIN  52  49  89 E13       30.33S
LA JUNTA       LGT RAIN  55  50  83 NE7       30.33R
LAMAR          CLOUDY    52  48  86 N3        30.28
SPRINGFIELD      N/A     52  51  97 N13       30.30R
$$



USA.gov is the U.S. government's official web portal to all federal, state and local government web resources and services.